Location: Pitton
(51.0667°N, 1.7000°W)
Time: 04:52:59
(UTC+00:00)

USA 234 - Pass Details

Date: 17 September 2019
Orbit: 1103 x 1105 km, 123.0° (Epoch: 17 October)

Event Time Altitude Azimuth Distance (km) Brightness Sun altitude
Exits shadow 19:10:21 - 68° (ENE) 3,638 5.5 -9.1°
Reaches altitude 10° 19:12:07 10° 65° (ENE) 2,967 5.1 -9.3°
Maximum altitude 19:18:30 58° 349° (N) 1,276 3.8 -10.3°
Drops below altitude 10° 19:24:53 10° 273° (W) 2,965 6.9 -11.2°
Sets 19:27:24 0° 269° (W) 3,922 7.7 -11.6°
